| time (UTC) | temp F | wind direction | speed knots | gust knots | rain 1hr in | rain 24hr in | rain mn in | humidity % | barometer mb |
| 20260505025043 | 56 | 213 | 5.2 | 11.3 | 0.00 | 0.00 | 0.00 | 62 | 1011.0 |
| 20260505024542 | 56 | 237 | 4.3 | 5.2 | 0.00 | 0.00 | 0.00 | 61 | 1010.8 |
| 20260505023942 | 57 | 232 | 2.6 | 9.6 | 0.00 | 0.00 | 0.00 | 61 | 1011.1 |
| 20260505023442 | 57 | 153 | 4.3 | 5.2 | 0.00 | 0.00 | 0.00 | 60 | 1010.9 |
| 20260505022942 | 57 | 221 | 7.8 | 9.6 | 0.00 | 0.00 | 0.00 | 60 | 1010.9 |
| 20260505022503 | 57 | 228 | 4.3 | 7.8 | 0.00 | 0.00 | 0.00 | 60 | 1011.0 |
| 20260505021941 | 57 | 236 | 11.3 | 13.0 | 0.00 | 0.00 | 0.00 | 59 | 1011.1 |
| 20260505021441 | 58 | 266 | 5.2 | 11.3 | 0.00 | 0.00 | 0.00 | 58 | 1010.9 |
| 20260505020941 | 58 | 185 | 1.7 | 13.0 | 0.00 | 0.00 | 0.00 | 58 | 1010.8 |
| 20260505020501 | 58 | 253 | 4.3 | 9.6 | 0.00 | 0.00 | 0.00 | 57 | 1011.0 |
| 20260505015941 | 58 | 216 | 2.6 | 8.7 | 0.00 | 0.00 | 0.00 | 57 | 1010.6 |
| 20260505015441 | 58 | 193 | 2.6 | 7.8 | 0.00 | 0.00 | 0.00 | 57 | 1010.7 |
| 20260505014940 | 58 | 211 | 2.6 | 12.2 | 0.00 | 0.00 | 0.00 | 56 | 1010.9 |
| 20260505014440 | 58 | 240 | 5.2 | 6.1 | 0.00 | 0.00 | 0.00 | 56 | 1010.7 |
| 20260505013840 | 58 | 220 | 2.6 | 7.8 | 0.00 | 0.00 | 0.00 | 55 | 1010.8 |
| 20260505013359 | 59 | 221 | 5.2 | 7.8 | 0.00 | 0.00 | 0.00 | 55 | 1010.8 |
| 20260505012839 | 59 | 214 | 4.3 | 13.0 | 0.00 | 0.00 | 0.00 | 54 | 1010.7 |
| 20260505012339 | 59 | 218 | 1.7 | 9.6 | 0.00 | 0.00 | 0.00 | 54 | 1010.4 |
| 20260505011839 | 60 | 207 | 4.3 | 9.6 | 0.00 | 0.00 | 0.00 | 53 | 1010.5 |
| 20260505011359 | 60 | 177 | 1.7 | 17.4 | 0.00 | 0.00 | 0.00 | 52 | 1010.3 |
| 20260505010838 | 60 | 190 | 5.2 | 9.6 | 0.00 | 0.00 | 0.00 | 52 | 1010.4 |
| 20260505010338 | 60 | 268 | 6.1 | 8.7 | 0.00 | 0.00 | 0.00 | 52 | 1010.3 |
| 20260505005838 | 60 | 206 | 3.5 | 7.8 | 0.00 | 0.00 | 0.00 | 52 | 1010.2 |
| 20260505005338 | 60 | 239 | 5.2 | 8.7 | 0.00 | 0.00 | 0.00 | 52 | 1010.3 |
| 20260505004838 | 61 | 191 | 3.5 | 12.2 | 0.00 | 0.00 | 0.00 | 51 | 1010.2 |
| 20260505004337 | 61 | 207 | 7.0 | 11.3 | 0.00 | 0.00 | 0.00 | 50 | 1009.9 |
| 20260505003737 | 61 | 150 | 3.5 | 7.8 | 0.00 | 0.00 | 0.00 | 50 | 1009.9 |
| 20260505003317 | 62 | 225 | 12.2 | 13.0 | 0.00 | 0.00 | 0.00 | 49 | 1009.5 |
| 20260505002757 | 62 | 235 | 0.9 | 6.1 | 0.00 | 0.00 | 0.00 | 50 | 1009.4 |
| 20260505002237 | 62 | 217 | 3.5 | 11.3 | 0.00 | 0.00 | 0.00 | 49 | 1009.1 |
| 20260505001737 | 62 | 186 | 3.5 | 10.4 | 0.00 | 0.00 | 0.00 | 49 | 1009.2 |
| 20260505001236 | 62 | 236 | 4.3 | 9.6 | 0.00 | 0.00 | 0.00 | 49 | 1009.1 |
| 20260505000736 | 62 | 250 | 3.5 | 9.6 | 0.00 | 0.00 | 0.00 | 49 | 1008.8 |
| 20260505000236 | 62 | 0.0 | 7.8 | 0.00 | 0.00 | 0.00 | 49 | 1008.8 | |
| 20260504235756 | 63 | 196 | 5.2 | 12.2 | 0.00 | 0.00 | 0.00 | 48 | 1008.7 |
| 20260504235235 | 63 | 178 | 5.2 | 8.7 | 0.00 | 0.00 | 0.00 | 48 | 1008.5 |
| 20260504234736 | 63 | 168 | 3.5 | 13.9 | 0.00 | 0.00 | 0.00 | 48 | 1008.5 |
| 20260504234235 | 64 | 212 | 10.4 | 14.8 | 0.00 | 0.00 | 0.00 | 47 | 1008.2 |
| 20260504233635 | 64 | 191 | 5.2 | 9.6 | 0.00 | 0.00 | 0.00 | 47 | 1008.3 |
| 20260504233234 | 64 | 192 | 3.5 | 14.8 | 0.00 | 0.00 | 0.00 | 46 | 1008.4 |
| 20260504232734 | 64 | 225 | 4.3 | 17.4 | 0.00 | 0.00 | 0.00 | 46 | 1008.2 |
| 20260504232234 | 65 | 239 | 9.6 | 10.4 | 0.00 | 0.00 | 0.00 | 45 | 1008.1 |
| 20260504231734 | 65 | 225 | 5.2 | 16.5 | 0.00 | 0.00 | 0.00 | 45 | 1008.1 |
| 20260504231234 | 65 | 223 | 10.4 | 13.0 | 0.00 | 0.00 | 0.00 | 45 | 1007.9 |
| 20260504230733 | 66 | 224 | 4.3 | 15.6 | 0.00 | 0.00 | 0.00 | 44 | 1007.8 |
| 20260504230253 | 66 | 242 | 7.8 | 13.0 | 0.00 | 0.00 | 0.00 | 44 | 1007.8 |
| 20260504225733 | 66 | 154 | 10.4 | 13.0 | 0.00 | 0.00 | 0.00 | 43 | 1007.6 |
| 20260504225233 | 67 | 221 | 10.4 | 17.4 | 0.00 | 0.00 | 0.00 | 42 | 1007.5 |
| 20260504224813 | 67 | 248 | 2.6 | 11.3 | 0.00 | 0.00 | 0.00 | 41 | 1007.6 |
| 20260504224232 | 68 | 208 | 9.6 | 13.0 | 0.00 | 0.00 | 0.00 | 40 | 1007.5 |
| 20260504223732 | 68 | 233 | 7.8 | 19.1 | 0.00 | 0.00 | 0.00 | 40 | 1007.4 |
| 20260504223232 | 68 | 227 | 4.3 | 12.2 | 0.00 | 0.00 | 0.00 | 40 | 1007.4 |
| 20260504222732 | 69 | 203 | 2.6 | 9.6 | 0.00 | 0.00 | 0.00 | 39 | 1007.4 |
| 20260504222232 | 69 | 257 | 11.3 | 13.0 | 0.00 | 0.00 | 0.00 | 38 | 1007.4 |
| 20260504221732 | 69 | 209 | 11.3 | 13.0 | 0.00 | 0.00 | 0.00 | 38 | 1007.3 |
| 20260504221231 | 69 | 224 | 1.7 | 9.6 | 0.00 | 0.00 | 0.00 | 38 | 1007.3 |
| 20260504220731 | 70 | 293 | 13.9 | 18.2 | 0.00 | 0.00 | 0.00 | 36 | 1007.3 |
| 20260504220231 | 71 | 223 | 6.1 | 6.1 | 0.00 | 0.00 | 0.00 | 36 | 1007.2 |
| 20260504215751 | 71 | 152 | 7.8 | 12.2 | 0.00 | 0.00 | 0.00 | 35 | 1007.2 |
| 20260504215230 | 72 | 170 | 4.3 | 9.6 | 0.00 | 0.00 | 0.00 | 33 | 1007.5 |
| 20260504214731 | 71 | 162 | 7.8 | 13.0 | 0.00 | 0.00 | 0.00 | 32 | 1007.1 |
| 20260504214230 | 71 | 262 | 7.8 | 12.2 | 0.00 | 0.00 | 0.00 | 32 | 1007.2 |
| 20260504213730 | 72 | 234 | 3.5 | 7.0 | 0.00 | 0.00 | 0.00 | 31 | 1007.1 |
| 20260504213229 | 72 | 235 | 5.2 | 11.3 | 0.00 | 0.00 | 0.00 | 32 | 1007.3 |
| 20260504212750 | 71 | 213 | 2.6 | 12.2 | 0.00 | 0.00 | 0.00 | 33 | 1007.1 |
| 20260504212229 | 71 | 246 | 5.2 | 9.6 | 0.00 | 0.00 | 0.00 | 33 | 1006.9 |
| 20260504211729 | 72 | 244 | 6.1 | 10.4 | 0.00 | 0.00 | 0.00 | 32 | 1007.3 |
| 20260504211229 | 72 | 240 | 5.2 | 9.6 | 0.00 | 0.00 | 0.00 | 31 | 1007.0 |
| 20260504210729 | 71 | 212 | 6.1 | 15.6 | 0.00 | 0.00 | 0.00 | 32 | 1007.1 |
| 20260504210228 | 73 | 258 | 8.7 | 17.4 | 0.00 | 0.00 | 0.00 | 31 | 1007.2 |
| 20260504205748 | 73 | 216 | 4.3 | 9.6 | 0.00 | 0.00 | 0.00 | 31 | 1007.1 |
| 20260504205228 | 72 | 253 | 8.7 | 13.9 | 0.00 | 0.00 | 0.00 | 31 | 1007.2 |
| 20260504204729 | 72 | 246 | 5.2 | 17.4 | 0.00 | 0.00 | 0.00 | 31 | 1007.0 |
| 20260504204228 | 73 | 249 | 2.6 | 11.3 | 0.00 | 0.00 | 0.00 | 31 | 1007.0 |
| 20260504203748 | 72 | 276 | 10.4 | 17.4 | 0.00 | 0.00 | 0.00 | 31 | 1007.1 |
| 20260504203227 | 72 | 276 | 9.6 | 18.2 | 0.00 | 0.00 | 0.00 | 31 | 1007.1 |
| 20260504202727 | 72 | 204 | 9.6 | 19.1 | 0.00 | 0.00 | 0.00 | 30 | 1007.2 |
| 20260504202227 | 73 | 253 | 8.7 | 13.9 | 0.00 | 0.00 | 0.00 | 30 | 1007.1 |
| 20260504201727 | 73 | 213 | 7.8 | 13.9 | 0.00 | 0.00 | 0.00 | 30 | 1007.1 |
| 20260504201246 | 73 | 212 | 4.3 | 15.6 | 0.00 | 0.00 | 0.00 | 30 | 1007.3 |
| 20260504200806 | 73 | 231 | 7.0 | 15.6 | 0.00 | 0.00 | 0.00 | 30 | 1007.2 |
| 20260504200226 | 72 | 225 | 1.7 | 12.2 | 0.00 | 0.00 | 0.00 | 30 | 1007.2 |
| 20260504195747 | 73 | 256 | 3.5 | 10.4 | 0.00 | 0.00 | 0.00 | 30 | 1007.5 |
| 20260504195226 | 72 | 255 | 6.1 | 13.0 | 0.00 | 0.00 | 0.00 | 30 | 1007.4 |
| 20260504194726 | 73 | 210 | 5.2 | 11.3 | 0.00 | 0.00 | 0.00 | 29 | 1007.2 |
| 20260504194225 | 72 | 272 | 10.4 | 17.4 | 0.00 | 0.00 | 0.00 | 29 | 1007.2 |
| 20260504193725 | 73 | 215 | 5.2 | 10.4 | 0.00 | 0.00 | 0.00 | 29 | 1007.3 |
| 20260504193124 | 72 | 272 | 5.2 | 13.9 | 0.00 | 0.00 | 0.00 | 29 | 1007.3 |
| 20260504192725 | 73 | 196 | 12.2 | 13.9 | 0.00 | 0.00 | 0.00 | 28 | 1007.3 |
| 20260504192224 | 71 | 226 | 11.3 | 20.0 | 0.00 | 0.00 | 0.00 | 29 | 1007.4 |
| 20260504191724 | 72 | 209 | 7.8 | 17.4 | 0.00 | 0.00 | 0.00 | 28 | 1007.2 |
| 20260504191224 | 71 | 238 | 3.5 | 13.0 | 0.00 | 0.00 | 0.00 | 28 | 1007.4 |
| 20260504190724 | 72 | 265 | 13.0 | 14.8 | 0.00 | 0.00 | 0.00 | 28 | 1007.5 |
| 20260504190224 | 71 | 278 | 12.2 | 16.5 | 0.00 | 0.00 | 0.00 | 29 | 1007.5 |
| 20260504185723 | 73 | 262 | 6.1 | 12.2 | 0.00 | 0.00 | 0.00 | 29 | 1007.5 |
| 20260504185223 | 71 | 205 | 3.5 | 14.8 | 0.00 | 0.00 | 0.00 | 28 | 1007.5 |
| 20260504184723 | 71 | 278 | 5.2 | 18.2 | 0.00 | 0.00 | 0.00 | 30 | 1007.5 |
| 20260504184243 | 71 | 235 | 4.3 | 12.2 | 0.00 | 0.00 | 0.00 | 29 | 1007.6 |
| 20260504183722 | 72 | 271 | 7.8 | 12.2 | 0.00 | 0.00 | 0.00 | 28 | 1007.7 |
| 20260504183243 | 72 | 264 | 3.5 | 17.4 | 0.00 | 0.00 | 0.00 | 30 | 1007.7 |
| 20260504182622 | 71 | 226 | 13.9 | 16.5 | 0.00 | 0.00 | 0.00 | 29 | 1007.5 |
| 20260504182123 | 71 | 208 | 4.3 | 14.8 | 0.00 | 0.00 | 0.00 | 30 | 1007.8 |
| 20260504181622 | 72 | 185 | 6.1 | 15.6 | 0.00 | 0.00 | 0.00 | 29 | 1008.1 |
| 20260504181122 | 70 | 193 | 10.4 | 17.4 | 0.00 | 0.00 | 0.00 | 30 | 1007.8 |
| 20260504180621 | 70 | 240 | 9.6 | 21.7 | 0.00 | 0.00 | 0.00 | 30 | 1007.8 |
| 20260504180141 | 70 | 229 | 5.2 | 14.8 | 0.00 | 0.00 | 0.00 | 30 | 1008.1 |
| 20260504175621 | 71 | 232 | 1.7 | 11.3 | 0.00 | 0.00 | 0.00 | 30 | 1008.0 |
| 20260504175142 | 71 | 260 | 7.8 | 17.4 | 0.00 | 0.00 | 0.00 | 30 | 1007.8 |
| 20260504174621 | 71 | 242 | 7.0 | 14.8 | 0.00 | 0.00 | 0.00 | 30 | 1008.0 |
| 20260504174121 | 71 | 221 | 3.5 | 12.2 | 0.00 | 0.00 | 0.00 | 31 | 1008.1 |
| 20260504173621 | 70 | 236 | 6.1 | 13.9 | 0.00 | 0.00 | 0.00 | 31 | 1008.0 |
| 20260504173141 | 70 | 266 | 9.6 | 16.5 | 0.00 | 0.00 | 0.00 | 30 | 1008.1 |
| 20260504172520 | 70 | 323 | 3.5 | 14.8 | 0.00 | 0.00 | 0.00 | 30 | 1008.1 |
| 20260504172020 | 69 | 219 | 11.3 | 21.7 | 0.00 | 0.00 | 0.00 | 30 | 1008.2 |
| 20260504171622 | 69 | 225 | 9.6 | 17.4 | 0.00 | 0.00 | 0.00 | 31 | 1008.1 |
| 20260504171020 | 69 | 223 | 8.7 | 15.6 | 0.00 | 0.00 | 0.00 | 31 | 1008.2 |
| 20260504170519 | 69 | 252 | 10.4 | 20.0 | 0.00 | 0.00 | 0.00 | 30 | 1008.3 |
| 20260504160417 | 67 | 255 | 13.0 | 22.6 | 0.00 | 0.00 | 0.00 | 34 | 1009.1 |
| 20260504150836 | 66 | 255 | 7.8 | 19.1 | 0.00 | 0.00 | 0.00 | 35 | 1009.3 |
| 20260504150315 | 67 | 160 | 1.7 | 11.3 | 0.00 | 0.00 | 0.00 | 36 | 1009.4 |
| 20260504141213 | 64 | 223 | 8.7 | 11.3 | 0.00 | 0.02 | 0.00 | 38 | 1009.7 |
| 20260504140713 | 64 | 230 | 10.4 | 12.2 | 0.00 | 0.03 | 0.00 | 39 | 1009.8 |
| 20260504140212 | 63 | 243 | 3.5 | 8.7 | 0.00 | 0.03 | 0.00 | 40 | 1009.8 |
| 20260504130611 | 58 | 263 | 15.6 | 18.2 | 0.00 | 0.04 | 0.00 | 45 | 1010.6 |
| 20260504130110 | 58 | 256 | 9.6 | 12.2 | 0.00 | 0.04 | 0.00 | 45 | 1010.7 |
| 20260504110424 | 48 | 223 | 1.7 | 6.1 | 0.00 | 0.04 | 0.00 | 57 | 1010.7 |
| 20260504100403 | 45 | 222 | 6.1 | 6.1 | 0.00 | 0.04 | 0.00 | 63 | 1010.7 |
| 20260504081658 | 45 | 248 | 1.7 | 4.3 | 0.00 | 0.04 | 0.00 | 66 | 1010.8 |
| 20260504081258 | 44 | 245 | 0.9 | 2.6 | 0.00 | 0.04 | 0.00 | 66 | 1010.5 |
| 20260504080558 | 44 | 244 | 1.7 | 2.6 | 0.00 | 0.04 | 0.00 | 66 | 1010.8 |
| 20260504050349 | 36 | 0.0 | 0.9 | 0.00 | 0.04 | 0.00 | 87 | 1010.5 | |
| 20260504045909 | 35 | 277 | 0.9 | 0.9 | 0.00 | 0.04 | 0.00 | 88 | 1010.5 |
| 20260504045349 | 35 | 279 | 1.7 | 1.7 | 0.00 | 0.04 | 0.00 | 88 | 1010.4 |
| 20260504044910 | 34 | 259 | 1.7 | 1.7 | 0.00 | 0.04 | 0.00 | 88 | 1010.8 |
| 20260504044349 | 34 | 297 | 0.9 | 1.7 | 0.00 | 0.04 | 0.00 | 87 | 1010.8 |
| 20260504043848 | 34 | 245 | 0.9 | 1.7 | 0.00 | 0.04 | 0.00 | 87 | 1011.0 |
| 20260504043348 | 34 | 277 | 1.7 | 1.7 | 0.00 | 0.04 | 0.00 | 86 | 1010.7 |
| 20260504042849 | 34 | 261 | 0.9 | 1.7 | 0.00 | 0.04 | 0.00 | 86 | 1010.7 |
| 20260504042408 | 34 | 287 | 1.7 | 1.7 | 0.00 | 0.04 | 0.00 | 86 | 1010.7 |
| 20260504041908 | 34 | 0.0 | 1.7 | 0.00 | 0.04 | 0.00 | 85 | 1010.6 | |
| 20260504041247 | 35 | 301 | 0.9 | 1.7 | 0.00 | 0.04 | 0.00 | 85 | 1010.6 |
| 20260504040747 | 34 | 0.0 | 1.7 | 0.00 | 0.04 | 0.00 | 85 | 1010.5 | |
| 20260504040347 | 34 | 280 | 1.7 | 2.6 | 0.00 | 0.04 | 0.00 | 85 | 1010.5 |
| 20260504035747 | 35 | 0.0 | 2.6 | 0.00 | 0.04 | 0.04 | 84 | 1010.2 | |
| 20260504035247 | 35 | 290 | 1.7 | 1.7 | 0.00 | 0.04 | 0.04 | 84 | 1010.4 |
| 20260504034746 | 35 | 281 | 0.9 | 1.7 | 0.00 | 0.04 | 0.04 | 84 | 1010.3 |
| 20260504034246 | 35 | 267 | 0.9 | 1.7 | 0.00 | 0.04 | 0.04 | 83 | 1010.2 |
| 20260504033806 | 35 | 280 | 1.7 | 1.7 | 0.00 | 0.04 | 0.04 | 83 | 1010.4 |
| 20260504033246 | 35 | 253 | 0.9 | 1.7 | 0.00 | 0.04 | 0.04 | 83 | 1010.0 |
| 20260504032746 | 36 | 311 | 0.9 | 1.7 | 0.00 | 0.04 | 0.04 | 82 | 1010.2 |
| 20260504032246 | 36 | 0.0 | 0.9 | 0.00 | 0.04 | 0.04 | 82 | 1010.2 | |
| 20260504031645 | 36 | 293 | 0.9 | 0.9 | 0.00 | 0.04 | 0.04 | 82 | 1010.3 |
| 20260504031205 | 36 | 0.0 | 1.7 | 0.00 | 0.04 | 0.04 | 81 | 1010.2 | |
| 20260504030705 | 36 | 290 | 0.9 | 0.9 | 0.00 | 0.04 | 0.04 | 81 | 1010.1 |
| 20260504030204 | 37 | 0.0 | 0.9 | 0.00 | 0.04 | 0.04 | 80 | 1010.2 | |
| 20260504025645 | 36 | 314 | 0.9 | 1.7 | 0.00 | 0.04 | 0.04 | 79 | 1010.2 |
| 20260504025144 | 37 | 0.0 | 0.9 | 0.00 | 0.04 | 0.04 | 78 | 1010.1 |